Weather History for KLLQ - September, 2013

Change the Weather History Date:

Tuesday, September 17, 2013

  Actual Average Record
Temperature  
Mean Temperature 82 °F -  
Max Temperature 95 °F 85 °F 103 °F (1980)
Min Temperature 68 °F 62 °F 39 °F (1961)
Cooling Degree Days 16    
Growing Degree Days 32 (Base 50)    
Moisture  
Dew Point 63 °F    
Average Humidity 57    
Maximum Humidity 90    
Minimum Humidity 32    
Precipitation  
Precipitation 0.00 in - - ()
Sea Level Pressure  
Sea Level Pressure 30.05 in    
Wind  
Wind Speed 5 mph (NE)    
Max Wind Speed 8 mph    
Max Gust Speed -    
Visibility 10 miles    
Events      
Averages and records for this station are not official NWS values.
T = Trace of Precipitation, MM = Missing Value Source: NWS Daily Summary

Daily Weather History Graph

Daily Weather History Graph

Search for Another Location

Airport or City:

Trip Planner

Search our weather history database for the weather conditions in past years. The results will help you decide how hot, cold, wet, or windy it might be!

Date:

Astronomy

Sep. 17, 2013 Rise Set
Actual Time 6:51 AM CDT 7:10 PM CDT
Civil Twilight 6:26 AM CDT 7:35 PM CDT
Nautical Twilight 5:57 AM CDT 8:04 PM CDT
Astronomical Twilight 5:28 AM CDT 8:33 PM CDT
Moon 5:55 PM CDT (9/17) 4:51 AM CDT (9/17)
Length of Visible Light 13h 08m
Length of Day
12h 18m
Waxing Gibbous, 96% of the Moon is Illuminated
Sep 17
Waxing Gibbous
Sep 19
Full
Sep 26
Last Quarter
Oct 4
New
Oct 11
First Quarter

Hourly Weather History & Observations

Time (CDT) Temp. Heat Index Dew Point Humidity Pressure Visibility Wind Dir Wind Speed Gust Speed Precip Events Conditions
12:53 AM 75.0 °F - 59.0 °F 57% 30.10 in 10.0 mi NNE 5.8 mph - N/A   Partly Cloudy
1:53 AM 73.9 °F - 61.0 °F 64% 30.10 in 10.0 mi NE 5.8 mph - 0.00 in   Overcast
2:53 AM 73.9 °F - 63.0 °F 68% 30.08 in 10.0 mi ENE 5.8 mph - N/A   Overcast
3:53 AM 72.0 °F - 64.0 °F 76% 30.08 in 10.0 mi ENE 6.9 mph - N/A   Partly Cloudy
4:53 AM 71.1 °F - 64.0 °F 78% 30.07 in 10.0 mi NE 5.8 mph - N/A   Mostly Cloudy
5:53 AM 69.1 °F - 64.0 °F 84% 30.08 in 10.0 mi NE 5.8 mph - N/A   Clear
6:53 AM 68.0 °F - 64.9 °F 90% 30.09 in 9.0 mi NE 5.8 mph - N/A   Clear
7:53 AM 70.0 °F - 64.9 °F 84% 30.10 in 9.0 mi NE 5.8 mph - N/A   Clear
8:53 AM 73.9 °F - 64.0 °F 71% 30.11 in 10.0 mi ENE 8.1 mph - N/A   Clear
9:53 AM 79.0 °F - 64.0 °F 60% 30.12 in 10.0 mi Variable 3.5 mph - N/A   Clear
10:53 AM 84.0 °F 85.4 °F 64.0 °F 51% 30.12 in 10.0 mi East 4.6 mph - N/A   Clear
11:53 AM 88.0 °F 89.6 °F 64.9 °F 46% 30.10 in 10.0 mi Calm Calm - N/A   Partly Cloudy
12:53 PM 91.9 °F 93.3 °F 64.0 °F 39% 30.07 in 10.0 mi Calm Calm - N/A   Clear
1:53 PM 91.9 °F 92.9 °F 63.0 °F 38% 30.04 in 10.0 mi NNW 3.5 mph - N/A   Partly Cloudy
2:53 PM 91.9 °F 92.5 °F 62.1 °F 37% 30.01 in 10.0 mi WNW 4.6 mph - N/A   Scattered Clouds
3:53 PM 95.0 °F 95.6 °F 62.1 °F 33% 29.99 in 10.0 mi ENE 8.1 mph - N/A   Partly Cloudy
4:53 PM 93.9 °F 93.6 °F 60.1 °F 32% 29.98 in 10.0 mi East 5.8 mph - N/A   Partly Cloudy
5:53 PM 91.9 °F 91.8 °F 61.0 °F 35% 29.99 in 10.0 mi ENE 4.6 mph - N/A   Overcast
6:53 PM 88.0 °F 87.9 °F 61.0 °F 40% 29.99 in 10.0 mi Calm Calm - N/A   Clear
7:53 PM 82.9 °F 83.7 °F 62.1 °F 49% 29.99 in 10.0 mi Calm Calm - N/A   Clear
8:53 PM 82.0 °F 83.0 °F 62.1 °F 51% 30.01 in 10.0 mi Calm Calm - N/A   Clear
9:53 PM 78.1 °F - 62.1 °F 58% 30.02 in 10.0 mi Calm Calm - N/A   Clear
10:53 PM 75.0 °F - 63.0 °F 66% 30.03 in 10.0 mi Calm Calm - N/A   Clear
11:53 PM 75.9 °F - 63.0 °F 64% 30.03 in 10.0 mi Calm Calm - N/A   Clear